AirNav   Air Wisconsin pilot careers
 
 530 users online  

NH17 Zim Airport
Mason, New Hampshire, USA

GOING TO MASON?


FAA INFORMATION EFFECTIVE 24 MAY 2018

Location

FAA Identifier: NH17
Lat/Long: 42-43-39.2400N / 071-43-03.4000W
42-43.654000N / 071-43.056667W
42.7275667 / -71.7176111
(estimated)
Elevation: 560 ft. / 171 m (estimated)
Variation: 15W (1985)
From city: 5 miles SE of MASON, NH
Time zone: UTC -4 (UTC -5 during Standard Time)
Zip code: 03048

Airport Operations

Airport use: Private use. Permission required prior to landing
Activation date: 11/1988
Control tower: no
ARTCC: BOSTON CENTER
FSS: BANGOR FLIGHT SERVICE STATION
Attendance: UNATNDD
Wind indicator: yes
Segmented circle: no
Landing fee: yes

Airport Communications

WX AWOS-3PT at ASH (10 nm E): 125.1 (603-578-0473)
WX ASOS at FIT (11 nm S): 135.175 (978-343-9121)
WX ASOS at AFN (13 nm W): 135.875 (603-532-6195)
WX ASOS at MHT (17 nm NE): 119.55 (603-621-1766)

Nearby radio navigation aids

VOR radial/distance  VOR name  Freq  Var
MHTr256/17.5MANCHESTER VOR/DME114.4015W
GDMr068/18.6GARDNER VOR/DME110.6014W
EENr113/25.6KEENE VORTAC109.4014W
LWMr283/27.5LAWRENCE VOR/DME112.5015W
CONr207/30.2CONCORD VOR/DME112.9015W
BOSr321/39.1BOSTON VOR/DME112.7016W

 
NDB name  Hdg/Dist  Freq  Var  ID
CHERN237/7.735916WAS .- ...
FITCHBURG024/10.736515WFIT ..-. .. -
FITZY240/11.720915WMJ -- .---
SHAKER HILL320/28.925116WSKR ... -.- .-.

Airport Services

Runway Information

Runway 1/19

Dimensions: 1500 x 150 ft. / 457 x 46 m
Surface: turf
RUNWAY 1  RUNWAY 19
Traffic pattern: leftright

Airport Ownership and Management from official FAA records

Ownership: Privately-owned
Owner: ROBERT V. ZIMINSKY
227 CAMPBELL MILL ROAD
MASON, NH 03048
Phone 603-878-2224
Manager: ROBERT V. ZIMINSKY
227 CAMPBELL MILL ROAD
MASON, NH 03048
Phone 603-878-2224

Airport Operational Statistics

Aircraft based on the field: 1
Single engine airplanes: 1
    

Additional Remarks

A52-01 NO OBSTRUCTIONS FIRST 1000 FT.
ALL TRAFFIC REMAIN EAST OF THE RY.
1000 FT CLEARWAY AER 01.

Instrument Procedures

There are no published instrument procedures at NH17.

Some nearby airports with instrument procedures:

KASH - Boire Field Airport (10 nm E)
KFIT - Fitchburg Municipal Airport (11 nm S)
KAFN - Jaffrey Airport-Silver Ranch (13 nm W)
KGDM - Gardner Municipal Airport (17 nm SW)
KMHT - Manchester Airport (17 nm NE)
6B6 - Minute Man Air Field (18 nm SE)
 
Loc | Ops | Rwys | IFR | FBO | Links
Com | Nav | Svcs | Stats | Notes

AirNav Hotels Sweepstakes
 
Area around NH17 (Zim Airport)
 
Road maps at: MapQuest Bing Google
 
Aerial photo
WARNING: Photo may not be current or correct
Aerial photo of NH17 (Zim Airport)
Do you have a better or more recent aerial photo of Zim Airport that you would like to share? If so, please send us your photo.

 
Sectional chart

 
Airport distance calculator
Flying to Zim Airport? Find the distance to fly.

From to NH17

Sunrise and sunset
Times for 21-Jun-2018
 Local
(UTC-4)
 Zulu
(UTC)
Morning civil twilight04:3508:35
Sunrise05:1009:10
Sunset20:2700:27
Evening civil twilight21:0301:03

Current date and time
Zulu (UTC)  21-Jun-2018 05:25:51
Local (UTC-4)  21-Jun-2018 01:25:51
 
METAR
KASH 
9nm E 
210456Z AUTO 00000KT 10SM CLR 16/13 A2976 RMK AO2 SLP085 T01560128
KFIT 
11nm S 
210452Z AUTO 00000KT 10SM CLR 18/14 A2977 RMK AO2 SLP079 T01780144 402610106
KAFN 
13nm W 
210452Z AUTO 17003KT 10SM CLR 13/12 A2980 RMK AO2 SLP091 T01330122 402500089
KMHT 
18nm NE 
210453Z 17004KT 10SM FEW250 18/12 A2974 RMK AO2 SLP079 T01830122 402780128
TAF
KMHT 
18nm NE 
201720Z 2018/2118 22010KT P6SM BKN250 FM210200 00000KT P6SM BKN250 FM211400 01008KT P6SM BKN090
NOTAMs
Click for the latest NOTAMs
NOTAMs are issued by the DoD/FAA and will open in a separate window not controlled by AirNav.

 

 
 

Would you like to see your business listed on this page?

 If your business provides an interesting product or service to pilots, flight crews, aircraft, or users of the Zim Airport, you should consider listing it here.  To start the listing process, click on the button below
 
Add a business
 

Other Pages about Zim Airport

Update a link
 
Copyright © AirNav, LLC. All rights reserved. Privacy Policy  Contact